Flag Weather past 2 weeks in Tórshavn, Faroe Islands, Faroe Islands

Now
45 °F

Passing clouds.


Feels Like: 37 °F
Forecast: 43 / 48 °F
Wind: 18 mph from South

Location: Soervaag / Vagar

Current Time: Nov 26, 2014 at 1:56:58 AM

Latest Report: Nov 26, 2014 at 1:20 AM


Visibility: N/A

Pressure: 29.95 "Hg

Humidity: 81%

Dew point: 39 °F

Location of TórshavnLocation

Historic Weather in Tórshavn — Graph

°F

Tórshavn temperature yesterday

Maximum temperature yesterday: 48 °F (at 11:20 AM)
Minimum temperature yesterday: 41 °F (at 1:20 AM)
Average temperature yesterday: 46 °F

Past Weeks' High & Low Weather Summary

 TemperatureHumidityPressure
High52 °F (Nov 14, 5:20 PM)100% (Nov 12, 7:20 PM)30.30 "Hg (Nov 12, 7:20 PM)
Low37 °F (Nov 23, 9:20 PM)71% (Nov 25, 12:20 AM)29.42 "Hg (Nov 12, 8:50 PM)
Average48 °F90%29.84 "Hg
* Reported Nov 11 12:20 AM — Nov 26 12:50 AM, Tórshavn, Weather by CustomWeather, © 2014

Note: Actual official high and low records may vary slightly from our data, if they occured in-between our weather recording intervals... More about our weather records

Advertising

Tórshavn weather history for previous 24 hours

 ConditionsComfort  
Time TempWeatherWind HumidityBarometerVisibility
12:50 AM
Nov 26
45 °FPartly cloudy.15 mph87%29.95 "HgN/A
12:20 AM46 °FPartly cloudy.17 mph76%29.95 "HgN/A
11:50 PM
Nov 25
46 °FPassing clouds.17 mph82%29.95 "HgN/A
11:20 PM45 °FPassing clouds.18 mph81%29.98 "HgN/A
10:50 PM46 °FPassing clouds.17 mph82%29.98 "HgN/A
10:20 PM45 °FSprinkles. Passing clouds.17 mph87%29.98 "Hg5 mi
9:50 PM46 °FSprinkles. Passing clouds.18 mph76%29.98 "HgN/A
9:20 PM46 °FSprinkles. Passing clouds.16 mph82%30.01 "HgN/A
8:50 PM46 °FLight rain. Passing clouds.16 mph87%29.98 "HgN/A
8:20 PM46 °FPassing clouds.16 mph87%30.01 "HgN/A
7:50 PM46 °FPassing clouds.14 mph87%30.01 "HgN/A
7:20 PM46 °FPassing clouds.16 mph87%30.01 "HgN/A
6:50 PM46 °FPassing clouds.16 mph87%30.01 "HgN/A
6:20 PM46 °FPassing clouds.14 mph87%30.01 "HgN/A
5:50 PM46 °FPassing clouds.14 mph93%30.01 "HgN/A
5:20 PM46 °FPassing clouds.13 mph93%30.01 "HgN/A
4:50 PM46 °FSprinkles. Passing clouds.17 mph82%30.01 "HgN/A
4:20 PM46 °FSprinkles. Partly sunny.18 mph93%30.01 "HgN/A
3:50 PM46 °FOvercast.18 mph93%30.01 "HgN/A
3:20 PM46 °FPartly sunny.18 mph93%30.01 "HgN/A
2:50 PM48 °FPartly sunny.18 mph87%30.01 "HgN/A
2:20 PM48 °FOvercast.17 mph87%30.04 "HgN/A
1:50 PM46 °FPartly sunny.16 mph87%30.04 "HgN/A
1:20 PM48 °FOvercast.18 mph87%30.04 "HgN/A
12:50 PM48 °FOvercast.17 mph82%30.04 "HgN/A
12:20 PM48 °FOvercast.16 mph82%30.04 "HgN/A
11:50 AM48 °FOvercast.17 mph82%30.04 "HgN/A
11:20 AM48 °FOvercast.16 mph82%30.04 "HgN/A
10:50 AM46 °FOvercast.15 mph87%30.04 "HgN/A
10:20 AM46 °FOvercast.13 mph87%30.04 "HgN/A
9:50 AM46 °FPassing clouds.10 mph87%30.04 "HgN/A
9:20 AM46 °FPassing clouds.14 mph87%30.04 "HgN/A
8:50 AM46 °FPassing clouds.13 mph87%30.04 "HgN/A
8:20 AM46 °FPassing clouds.13 mph87%30.04 "HgN/A
7:50 AM45 °FSprinkles. Passing clouds.14 mph87%30.04 "HgN/A
7:20 AM46 °FPartly cloudy.15 mph82%30.01 "HgN/A
6:50 AM46 °FPartly cloudy.13 mph76%30.01 "HgN/A
6:20 AM46 °FPassing clouds.13 mph82%30.01 "HgN/A
5:50 AM46 °FPassing clouds.12 mph76%30.01 "HgN/A
5:20 AM45 °FPassing clouds.15 mph81%30.01 "HgN/A
4:50 AM45 °FPassing clouds.6 mph81%30.01 "HgN/A
4:20 AM45 °FPassing clouds.12 mph76%30.01 "HgN/A
3:50 AM45 °FPassing clouds.12 mph76%30.01 "HgN/A
3:20 AM45 °FPassing clouds.16 mph76%30.01 "HgN/A
2:50 AM45 °FPassing clouds.15 mph76%30.01 "HgN/A
2:20 AM45 °FPassing clouds.15 mph71%29.98 "HgN/A
1:50 AM45 °FPassing clouds.13 mph81%29.98 "HgN/A
1:20 AM41 °FLight rain. Passing clouds.17 mph87%29.98 "Hg4 mi
Weather by CustomWeather, © 2014

See weather overviewHow to use our weather pages